FW6610 Weather Reports


time (UTC)temp
C
wind
direction
speed
KPH
gust
KPH
rain 1hr
cm
rain 24hr
cm
rain mn
cm
humidity
%
barometer
mb
20260906220048 20 0 0.0 0.0 0.00 0.38 0.36 77 1015.7
20260906215529 21 0 0.0 1.6 0.00 0.38 0.36 75 1015.7
20260906215030 21 0 0.0 3.2 0.00 0.38 0.36 73 1015.7
20260906214545 21 0 0.0 3.2 0.00 0.38 0.36 71 1015.7
20260906214029 21 0 0.0 0.0 0.00 0.38 0.36 75 1015.8
20260906213529 21 0 0.0 3.2 0.00 0.38 0.36 74 1015.8
20260906213053 21 0 0.0 3.2 0.00 0.38 0.36 74 1015.7
20260906212527 21 150 1.6 3.2 0.00 0.38 0.36 69 1015.7
20260906212028 21 0 0.0 1.6 0.00 0.38 0.36 67 1015.6
20260906211556 21 0 0.0 1.6 0.00 0.38 0.36 68 1015.7
20260906211030 21 205 0.0 1.6 0.00 0.38 0.36 68 1015.7
20260906210530 20 195 0.0 1.6 0.00 0.38 0.36 73 1015.7
20260906210045 20 0 0.0 1.6 0.00 0.38 0.36 74 1015.7
20260906205535 20 0 0.0 1.6 0.00 0.38 0.36 71 1015.6
20260906205028 20 10 0.0 1.6 0.00 0.38 0.36 70 1015.5
20260906204552 21 0 0.0 1.6 0.00 0.38 0.36 71 1015.4
20260906204030 21 0 0.0 1.6 0.00 0.38 0.36 67 1015.6
20260906203528 21 0 0.0 1.6 0.00 0.38 0.36 67 1015.5
20260906203050 21 284 0.0 4.8 0.00 0.38 0.36 66 1015.5
20260906202530 22 0 0.0 11.3 0.00 0.38 0.36 66 1015.4
20260906202029 22 27 3.2 11.3 0.00 0.38 0.36 68 1015.4
20260906201559 22 32 1.6 11.3 0.00 0.38 0.36 60 1015.4
20260906201028 22 301 4.8 11.3 0.00 0.38 0.36 59 1015.5
20260906200528 22 257 0.0 4.8 0.00 0.38 0.36 62 1015.4
20260906200050 22 77 1.6 4.8 0.00 0.38 0.36 61 1015.3
20260906195530 22 210 1.6 9.7 0.00 0.38 0.36 65 1015.3
20260906195030 22 226 1.6 12.9 0.00 0.38 0.36 63 1015.4
20260906194546 22 301 3.2 12.9 0.00 0.38 0.36 62 1015.4
20260906194030 21 259 3.2 11.3 0.00 0.38 0.36 61 1015.6
20260906193531 21 293 3.2 11.3 0.00 0.38 0.36 64 1015.4
20260906193046 21 58 4.8 11.3 0.00 0.38 0.36 63 1015.4
20260906192529 21 247 3.2 14.5 0.00 0.38 0.36 65 1015.4
20260906192029 21 215 4.8 14.5 0.00 0.38 0.36 69 1015.4
20260906191556 21 271 4.8 14.5 0.00 0.38 0.36 67 1015.6
20260906191027 21 110 4.8 11.3 0.00 0.38 0.36 66 1015.8
20260906190527 21 250 3.2 14.5 0.00 0.38 0.36 67 1015.6
20260906190050 20 269 4.8 14.5 0.00 0.38 0.36 69 1015.7
20260906185533 21 236 3.2 8.0 0.00 0.38 0.36 71 1015.8
20260906185030 21 32 3.2 9.7 0.00 0.38 0.36 69 1015.7
20260906184547 21 319 3.2 14.5 0.00 0.38 0.36 70 1015.7
20260906184032 21 233 3.2 14.5 0.00 0.38 0.36 73 1015.7
20260906183530 21 232 3.2 9.7 0.00 0.38 0.36 72 1015.8
20260906183108 21 292 3.2 9.7 0.00 0.38 0.36 68 1015.9
20260906182529 21 65 3.2 9.7 0.00 0.38 0.36 70 1015.9
20260906182033 21 59 1.6 8.0 0.03 0.38 0.36 68 1016.0
20260906181557 20 94 1.6 8.0 0.03 0.38 0.36 75 1016.0
20260906181027 20 164 1.6 11.3 0.03 0.38 0.36 74 1016.0
20260906180531 20 319 3.2 11.3 0.03 0.38 0.36 78 1016.0
20260906180112 20 1 1.6 4.8 0.03 0.38 0.36 77 1016.0
20260906175531 20 309 1.6 6.4 0.03 0.38 0.36 79 1016.1
20260906175030 19 1 1.6 6.4 0.03 0.38 0.36 80 1016.1
20260906174543 19 321 1.6 9.7 0.03 0.38 0.36 82 1016.1
20260906174031 19 309 3.2 9.7 0.03 0.38 0.36 81 1016.3
20260906173530 19 268 3.2 6.4 0.03 0.38 0.36 81 1016.5
20260906173052 19 289 0.0 16.1 0.03 0.38 0.36 80 1016.5
20260906172530 20 263 3.2 16.1 0.03 0.38 0.36 76 1016.3
20260906172031 20 338 4.8 16.1 0.00 0.36 0.33 71 1016.4
20260906171551 21 274 1.6 8.0 0.00 0.36 0.33 71 1016.3
20260906171027 21 167 3.2 9.7 0.00 0.36 0.33 73 1016.1
20260906170527 20 297 3.2 11.3 0.00 0.36 0.33 75 1016.3
20260906170049 20 245 3.2 11.3 0.00 0.36 0.33 75 1016.2
20260906165530 20 304 3.2 8.0 0.00 0.36 0.33 75 1016.3
20260906165029 20 326 0.0 6.4 0.00 0.36 0.33 78 1016.5
20260906164545 20 110 1.6 19.3 0.00 0.36 0.33 76 1016.5
20260906164030 20 318 1.6 19.3 0.00 0.36 0.33 79 1016.7
20260906163532 19 321 0.0 4.8 0.00 0.36 0.33 79 1016.7
20260906163053 19 289 1.6 4.8 0.00 0.36 0.33 78 1016.7
20260906162529 19 349 0.0 4.8 0.00 0.36 0.33 76 1016.7
20260906162029 19 307 0.0 8.0 0.00 0.36 0.33 79 1016.7
20260906161558 18 4 3.2 8.0 0.00 0.36 0.33 80 1016.8
20260906161029 18 300 1.6 6.4 0.00 0.36 0.33 79 1016.8
20260906160531 18 295 1.6 6.4 0.00 0.36 0.33 78 1016.7
20260906160049 19 312 1.6 8.0 0.00 0.36 0.33 81 1016.7
20260906155531 18 262 3.2 8.0 0.00 0.36 0.33 81 1016.8
20260906155030 18 325 1.6 8.0 0.00 0.36 0.33 82 1016.8
20260906154545 18 0 1.6 6.4 0.00 0.36 0.33 84 1016.9
20260906154030 18 313 1.6 6.4 0.00 0.36 0.33 84 1017.0
20260906153529 18 0 0.0 6.4 0.00 0.36 0.33 83 1017.0
20260906153042 18 273 0.0 6.4 0.00 0.36 0.33 83 1017.0
20260906152531 18 281 1.6 4.8 0.00 0.36 0.33 85 1016.9
20260906152031 18 0 0.0 4.8 0.00 0.36 0.33 87 1017.1
20260906151550 18 285 0.0 3.2 0.00 0.36 0.33 84 1017.2
20260906151027 18 0 0.0 6.4 0.00 0.36 0.33 86 1017.2
20260906150531 17 0 0.0 6.4 0.00 0.36 0.33 86 1017.3
20260906150053 17 15 1.6 6.4 0.00 0.36 0.33 86 1017.2
20260906145529 17 335 1.6 8.0 0.00 0.38 0.33 84 1017.0
20260906145030 17 278 1.6 8.0 0.00 0.38 0.33 87 1017.1
20260906144602 17 104 0.0 8.0 0.00 0.38 0.33 87 1017.2
20260906144030 17 53 0.0 6.4 0.00 0.38 0.33 87 1017.2
20260906143527 17 0 0.0 6.4 0.00 0.38 0.33 88 1017.1
20260906143054 17 302 0.0 9.7 0.00 0.38 0.33 89 1017.1
20260906142530 17 0 1.6 9.7 0.00 0.38 0.33 90 1017.0
20260906142030 17 243 3.2 9.7 0.00 0.38 0.33 90 1017.2
20260906141551 16 335 1.6 9.7 0.00 0.38 0.33 90 1017.0
20260906141030 16 0 1.6 6.4 0.00 0.38 0.33 91 1017.0
20260906140534 16 261 0.0 4.8 0.00 0.38 0.33 92 1017.0
20260906140045 16 265 1.6 3.2 0.00 0.38 0.33 92 1016.9
20260906135532 16 297 0.0 3.2 0.00 0.38 0.33 93 1017.0
20260906135030 16 297 0.0 4.8 0.00 0.38 0.33 93 1017.1
20260906134556 16 179 0.0 4.8 0.00 0.38 0.33 95 1017.1
20260906134027 16 330 0.0 4.8 0.00 0.38 0.33 95 1017.0
20260906133530 16 297 0.0 4.8 0.00 0.38 0.33 95 1017.1
20260906133046 16 287 0.0 4.8 0.00 0.38 0.33 95 1017.1
20260906132530 16 316 1.6 4.8 0.03 0.38 0.33 95 1017.0
20260906132029 16 0 0.0 4.8 0.03 0.38 0.33 96 1017.0
20260906131543 16 295 0.0 4.8 0.05 0.38 0.33 97 1016.9
20260906131032 16 297 1.6 4.8 0.08 0.38 0.33 97 1016.9
20260906130529 15 0 0.0 4.8 0.08 0.38 0.33 97 1016.9
20260906130100 15 0 0.0 4.8 0.08 0.38 0.33 97 1016.8
20260906125527 15 256 1.6 3.2 0.10 0.38 0.33 97 1017.0
20260906125028 15 113 0.0 3.2 0.10 0.38 0.33 97 1017.0
20260906124550 15 0 0.0 4.8 0.13 0.38 0.33 97 1016.9
20260906124030 15 0 0.0 4.8 0.13 0.38 0.33 97 1016.9
20260906123528 15 0 0.0 6.4 0.15 0.38 0.33 97 1016.8
20260906123046 15 341 1.6 6.4 0.18 0.38 0.33 97 1016.8
20260906122531 15 291 0.0 4.8 0.15 0.36 0.30 97 1016.6
20260906122030 15 0 0.0 6.4 0.15 0.36 0.30 97 1016.6
20260906121545 15 0 0.0 6.4 0.13 0.33 0.28 97 1016.6
20260906121030 15 117 0.0 6.4 0.13 0.30 0.25 97 1016.5
20260906120528 15 293 0.0 1.6 0.15 0.30 0.25 97 1016.5
20260906120054 15 0 0.0 1.6 0.20 0.30 0.25 97 1016.4
20260906115530 15 0 0.0 3.2 0.20 0.28 0.23 97 1016.3
20260906115031 15 306 0.0 3.2 0.18 0.25 0.20 97 1016.4
20260906114557 15 0 0.0 3.2 0.18 0.25 0.20 97 1016.3
20260906114029 15 0 0.0 3.2 0.18 0.25 0.20 97 1016.3
20260906113529 15 335 0.0 4.8 0.15 0.23 0.18 97 1016.2
20260906113054 15 113 0.0 4.8 0.13 0.20 0.15 97 1016.1
20260906112529 15 314 0.0 3.2 0.13 0.20 0.15 97 1016.1
20260906112030 15 264 1.6 3.2 0.13 0.20 0.15 97 1016.0
20260906111545 15 254 0.0 3.2 0.13 0.20 0.15 97 1015.9
20260906111029 15 307 1.6 4.8 0.10 0.18 0.13 97 1016.0
20260906110527 15 281 1.6 4.8 0.08 0.15 0.10 97 1015.8
20260906110053 15 252 1.6 4.8 0.03 0.10 0.05 97 1015.6
20260906105527 15 315 0.0 4.8 0.00 0.08 0.03 97 1015.5
20260906105031 15 289 0.0 4.8 0.00 0.08 0.03 97 1015.6
20260906104549 15 13 0.0 4.8 0.00 0.08 0.03 97 1015.5
20260906104029 15 0 1.6 4.8 0.00 0.08 0.03 97 1015.4
20260906103528 15 296 1.6 4.8 0.00 0.08 0.03 96 1015.3
20260906103055 15 0 0.0 3.2 0.00 0.08 0.03 97 1015.1
20260906102528 15 0 0.0 3.2 0.00 0.08 0.03 97 1015.1
20260906102033 15 296 0.0 3.2 0.00 0.08 0.03 97 1015.0
20260906101553 15 0 0.0 3.2 0.00 0.08 0.03 97 1015.0
20260906101029 15 334 0.0 1.6 0.00 0.08 0.03 97 1015.0
20260906100528 15 0 0.0 0.0 0.00 0.08 0.03 97 1014.9
20260906100052 15 0 0.0 0.0 0.00 0.08 0.03 97 1014.9
20260906095529 15 0 0.0 0.0 0.00 0.08 0.03 97 1014.9
20260906095027 15 0 0.0 0.0 0.00 0.08 0.03 97 1014.8
20260906094548 15 0 0.0 0.0 0.00 0.08 0.03 97 1014.7
20260906094028 15 0 0.0 0.0 0.00 0.08 0.03 97 1014.8
20260906093528 15 0 0.0 0.0 0.00 0.08 0.03 97 1014.7
20260906093045 15 0 0.0 0.0 0.00 0.08 0.03 97 1014.7
20260906092531 15 0 0.0 0.0 0.00 0.08 0.03 97 1014.7
20260906092030 15 0 0.0 0.0 0.00 0.08 0.03 97 1014.6
20260906091551 15 0 0.0 1.6 0.00 0.08 0.03 97 1014.5
20260906091029 15 0 0.0 1.6 0.00 0.08 0.03 97 1014.5
20260906090526 15 0 0.0 0.0 0.00 0.08 0.03 97 1014.5
20260906090049 15 0 0.0 0.0 0.00 0.08 0.03 97 1014.4
20260906085531 15 0 0.0 0.0 0.00 0.08 0.03 97 1014.5
20260906085029 15 0 0.0 0.0 0.00 0.08 0.03 96 1014.6
20260906084554 15 0 0.0 1.6 0.00 0.08 0.03 97 1014.7
20260906084029 15 0 0.0 1.6 0.00 0.08 0.03 97 1014.7
20260906083531 15 0 0.0 1.6 0.00 0.08 0.03 97 1014.6
20260906083048 15 0 0.0 1.6 0.00 0.08 0.03 96 1014.5
20260906082531 15 0 0.0 1.6 0.00 0.08 0.03 96 1014.5
20260906082030 15 343 0.0 1.6 0.00 0.08 0.03 96 1014.4
20260906081550 15 0 0.0 0.0 0.00 0.08 0.03 96 1014.1
20260906081029 15 0 0.0 0.0 0.00 0.08 0.03 96 1014.5
20260906080529 15 0 0.0 1.6 0.00 0.08 0.03 96 1014.6
20260906080052 15 0 0.0 1.6 0.00 0.08 0.03 96 1014.6
20260906075529 15 299 0.0 1.6 0.00 0.08 0.03 96 1014.5
20260906075030 15 0 0.0 1.6 0.00 0.08 0.03 96 1014.4
20260906074604 15 0 0.0 0.0 0.00 0.08 0.03 96 1014.4
20260906074028 15 0 0.0 0.0 0.00 0.08 0.03 96 1014.4
20260906073530 15 0 0.0 1.6 0.00 0.08 0.03 96 1014.4
20260906073045 15 0 0.0 1.6 0.00 0.08 0.03 96 1014.5
20260906072529 15 0 0.0 1.6 0.00 0.08 0.03 96 1014.5
20260906072031 15 0 0.0 1.6 0.00 0.08 0.03 96 1014.5
20260906071544 15 0 0.0 1.6 0.00 0.08 0.03 96 1014.3
20260906071031 15 0 0.0 0.0 0.00 0.08 0.03 96 1014.5
20260906070531 15 0 0.0 0.0 0.00 0.08 0.03 96 1014.4
20260906070141 15 0 0.0 1.6 0.00 0.08 0.03 96 1014.5
20260906070052 15 0 0.0 1.6 0.00 0.08 0.03 96 1014.5
20260906065529 15 0 0.0 1.6 0.00 0.08 0.03 96 1014.5
20260906065031 15 0 0.0 1.6 0.00 0.08 0.03 96 1014.5
20260906064546 15 0 0.0 1.6 0.03 0.08 0.03 96 1014.4
20260906064029 15 0 0.0 1.6 0.03 0.08 0.03 96 1014.5
20260906063529 15 0 0.0 1.6 0.03 0.08 0.03 95 1014.4
20260906063046 15 0 0.0 1.6 0.03 0.08 0.03 95 1014.6
20260906062529 15 0 0.0 0.0 0.03 0.08 0.03 95 1014.5
20260906062032 15 0 0.0 0.0 0.03 0.08 0.03 95 1014.5
20260906061550 15 0 0.0 4.8 0.03 0.08 0.03 95 1014.7
20260906061029 15 0 0.0 4.8 0.03 0.08 0.03 95 1014.6
20260906060527 15 356 0.0 4.8 0.03 0.08 0.03 95 1014.7
20260906060052 15 0 0.0 0.0 0.03 0.08 0.03 95 1014.7
20260906055530 15 0 0.0 0.0 0.03 0.08 0.03 95 1014.6
20260906055027 15 0 0.0 0.0 0.00 0.05 0.00 95 1014.8
20260906054547 15 0 0.0 0.0 0.00 0.05 0.00 95 1014.7
20260906054030 15 0 0.0 0.0 0.00 0.05 0.00 95 1014.7
20260906053530 15 0 0.0 0.0 0.00 0.05 0.00 95 1014.8
20260906053054 15 0 0.0 0.0 0.00 0.05 0.00 95 1014.9
20260906052529 15 0 0.0 0.0 0.00 0.05 0.00 94 1014.6
20260906052030 15 0 0.0 0.0 0.00 0.05 0.00 94 1014.7
20260906051601 15 0 0.0 0.0 0.00 0.05 0.00 94 1014.7
20260906051029 15 0 0.0 0.0 0.00 0.05 0.00 93 1014.8
20260906050527 16 0 0.0 0.0 0.00 0.05 0.00 93 1014.7
20260906050055 16 0 0.0 0.0 0.00 0.05 0.00 93 1014.7
20260906045530 16 0 0.0 0.0 0.00 0.05 0.00 93 1014.7
20260906045043 16 0 0.0 0.0 0.00 0.05 0.00 92 1014.6
20260906044545 16 0 0.0 0.0 0.00 0.05 0.00 92 1014.6
20260906044031 16 0 0.0 0.0 0.00 0.05 0.00 93 1014.5
20260906043533 16 0 0.0 0.0 0.00 0.05 0.00 92 1014.4
20260906043041 16 0 0.0 0.0 0.00 0.05 0.00 93 1014.5
20260906042527 16 194 0.0 0.0 0.00 0.05 0.00 93 1014.5
20260906042029 16 193 0.0 3.2 0.00 0.05 0.00 93 1014.4
20260906041552 16 0 0.0 3.2 0.00 0.05 0.00 94 1014.4
20260906041026 16 212 0.0 3.2 0.00 0.05 0.00 94 1014.4
20260906040530 16 0 0.0 0.0 0.00 0.05 0.00 95 1014.5
20260906040050 16 0 0.0 0.0 0.00 0.05 0.00 95 1014.5
20260906035530 16 0 0.0 0.0 0.00 0.05 0.05 95 1014.4
20260906035029 16 0 0.0 0.0 0.00 0.05 0.05 95 1014.4
20260906034545 16 0 0.0 0.0 0.00 0.05 0.05 94 1014.2
20260906034029 16 0 0.0 0.0 0.00 0.05 0.05 94 1014.3
20260906033527 16 0 0.0 0.0 0.00 0.05 0.05 94 1014.3
20260906033053 16 0 0.0 0.0 0.03 0.05 0.05 94 1014.4
20260906032530 16 0 0.0 1.6 0.03 0.05 0.05 94 1014.0
20260906032030 16 0 0.0 1.6 0.03 0.05 0.05 93 1013.9
20260906031559 16 0 0.0 1.6 0.03 0.05 0.05 93 1014.0
20260906031029 16 0 0.0 1.6 0.03 0.05 0.05 93 1014.1
20260906030529 16 0 0.0 0.0 0.03 0.05 0.05 93 1014.0
20260906030048 17 0 0.0 1.6 0.03 0.05 0.05 93 1013.7
20260906025529 17 0 0.0 1.6 0.03 0.05 0.05 93 1013.8
20260906025032 17 206 0.0 1.6 0.03 0.05 0.05 92 1013.6
20260906024557 17 0 0.0 0.0 0.03 0.05 0.05 91 1013.6
20260906024030 17 0 0.0 4.8 0.03 0.05 0.05 91 1013.6
20260906023529 17 0 0.0 4.8 0.03 0.05 0.05 90 1013.6
20260906023044 18 158 1.6 4.8 0.00 0.03 0.03 89 1013.7
20260906022529 18 0 0.0 0.0 0.00 0.03 0.03 90 1013.7
20260906022030 18 0 0.0 1.6 0.00 0.03 0.03 91 1013.6
20260906021551 18 0 0.0 1.6 0.00 0.03 0.03 91 1013.5
20260906021030 18 0 0.0 1.6 0.00 0.03 0.03 92 1013.5
20260906020529 18 0 0.0 1.6 0.00 0.03 0.03 92 1013.5
20260906020056 18 0 0.0 1.6 0.00 0.03 0.03 91 1013.5
20260906015528 18 0 0.0 1.6 0.00 0.03 0.03 91 1013.3
20260906015030 18 278 0.0 1.6 0.00 0.03 0.03 92 1013.3
20260906014554 18 0 0.0 0.0 0.00 0.03 0.03 92 1013.3
20260906014028 18 0 0.0 3.2 0.00 0.03 0.03 92 1013.2
20260906013529 18 0 0.0 3.2 0.00 0.03 0.03 91 1013.4
20260906013054 18 0 0.0 1.6 0.00 0.03 0.03 92 1013.4
20260906012531 18 0 0.0 1.6 0.00 0.03 0.03 92 1013.3
20260906012028 18 0 0.0 1.6 0.00 0.03 0.03 92 1013.3
20260906011543 18 0 0.0 1.6 0.00 0.03 0.03 92 1013.2
20260906011029 18 0 0.0 1.6 0.00 0.03 0.03 92 1013.2
20260906010528 18 0 0.0 0.0 0.00 0.03 0.03 93 1013.2
20260906010055 17 0 0.0 0.0 0.00 0.03 0.03 92 1013.1
20260906005529 17 0 0.0 0.0 0.00 0.03 0.03 92 1013.1
20260906005029 18 0 0.0 0.0 0.00 0.03 0.03 92 1013.0
20260906004550 18 0 0.0 0.0 0.00 0.03 0.03 92 1012.9
20260906004029 18 0 0.0 0.0 0.00 0.03 0.03 91 1012.9
20260906003530 18 0 0.0 0.0 0.00 0.03 0.03 91 1012.8
20260906003042 18 0 0.0 0.0 0.00 0.03 0.03 91 1012.8
20260906002529 18 0 0.0 0.0 0.00 0.03 0.03 91 1012.5
20260906002028 18 0 0.0 0.0 0.00 0.03 0.03 91 1012.7
20260906001552 18 0 0.0 0.0 0.00 0.03 0.03 91 1012.6
20260906001029 18 0 0.0 0.0 0.00 0.03 0.03 90 1012.5
20260906000529 18 0 0.0 1.6 0.00 0.03 0.03 90 1012.4
20260906000053 18 0 0.0 1.6 0.00 0.03 0.03 89 1012.2
20260905235527 18 0 0.0 1.6 0.00 0.03 0.03 88 1012.4
20260905235030 18 0 0.0 1.6 0.00 0.03 0.03 88 1012.2
20260905234547 18 0 0.0 1.6 0.00 0.03 0.03 87 1012.1
20260905234029 18 0 0.0 0.0 0.00 0.03 0.03 87 1012.0
20260905233529 18 0 0.0 0.0 0.00 0.03 0.03 86 1011.9
20260905233047 19 0 0.0 0.0 0.00 0.03 0.03 85 1011.9
20260905232528 19 0 0.0 0.0 0.00 0.03 0.03 85 1011.8
20260905232030 19 0 0.0 0.0 0.00 0.03 0.03 85 1011.8
20260905231546 20 0 0.0 0.0 0.00 0.03 0.03 85 1011.8
20260905231028 20 0 0.0 0.0 0.00 0.03 0.03 85 1011.8
20260905230527 20 0 0.0 1.6 0.00 0.03 0.03 84 1011.8
20260905230055 20 0 0.0 1.6 0.00 0.03 0.03 84 1011.8
20260905225527 20 0 0.0 1.6 0.00 0.03 0.03 82 1011.7
20260905225027 20 0 0.0 0.0 0.00 0.03 0.03 85 1011.8
20260905224601 20 0 0.0 0.0 0.00 0.03 0.03 85 1011.7
20260905224028 21 0 0.0 0.0 0.00 0.03 0.03 84 1011.8
20260905223531 21 0 0.0 0.0 0.00 0.03 0.03 83 1011.7
20260905223047 21 0 0.0 0.0 0.00 0.03 0.03 82 1011.8
20260905222529 21 0 0.0 1.6 0.00 0.03 0.03 82 1011.6
20260905222027 21 0 0.0 1.6 0.00 0.03 0.03 81 1011.4
20260905221601 22 0 0.0 3.2 0.00 0.03 0.03 80 1011.3
20260905221033 22 5 1.6 3.2 0.00 0.03 0.03 75 1011.4
20260905220529 22 342 0.0 1.6 0.00 0.03 0.03 75 1011.3